Weather Roundup
Issued by NWS Springfield, MO

Home | Current Version | Previous Version | Text Only | Print | Product List | Glossary On
Versions: 1 2 3 4 5 6 7 8 9 10 11 12 13 14 15 16 17 18 19 20 21 22 23 24 25 26 27 28 29 30 31 32 33 34 35 36 37 38 39 40 41 42 43 44 45 46 47 48 49 50
000
NZUS99 KSGF 222007
HRRSGF

HOURLY WEATHER
NATIONAL WEATHER SERVICE SPRINGFIELD MO
300 PM CDT FRI MAY 22 2015

......SGF CWA......

CITY           SKY/WX    TMP DP  RH WIND       PRES   REMARKS
SPRINGFIELD    CLOUDY    66  46  48 SE3       30.25F
JOPLIN         CLOUDY    65  49  56 E9        30.22F
WEST PLAINS    CLOUDY    65  47  52 E7        30.28F
ROLLA          PTSUNNY   67  51  56 S5        30.26F
OSAGE BEACH    PTSUNNY   70  46  43 SE5       30.26F
BRANSON        CLOUDY    64  46  52 SE9       30.26F

......SURROUNDING SGF CWA......

CITY           SKY/WX    TMP DP  RH WIND       PRES   REMARKS
CHANUTE        CLOUDY    63  52  67 SE10      30.22S
PARSONS        CLOUDY    63  52  67 SE6       30.22F
COFFEYVILLE    CLOUDY    64  53  67 SE9       30.20F
EMPORIA        CLOUDY    61  49  64 S14       30.21F
GROVE OK       CLOUDY    66  52  59 E9        30.21F
ROGERS AR      LGT RAIN  64  48  56 SE8       30.23F
SILOAM SPRINGS CLOUDY    61  48  63 E9        30.21F
HARRISON AR    CLOUDY    64  47  53 E12       30.25F
NEAR YELLVILLE CLOUDY    66  45  45 E6        30.24F

......KANSAS AND MISSOURI......

CITY           SKY/WX    TMP DP  RH WIND       PRES   REMARKS
KANSAS CTY INT CLOUDY    64  47  53 SE7       30.23F
DOWNTOWN KC    CLOUDY    68  46  45 E8        30.22F
COLUMBIA       CLOUDY    69  55  60 SW13      30.26F
SEDALIA        PTSUNNY   68  50  52 S5        30.27F
ST JOSEPH      CLOUDY    64  48  56 CALM      30.25F
ST LOUIS       CLOUDY    74  50  42 W8        30.24F
SPIRIT OF STL  CLOUDY    74  49  41 W7        30.23F
KIRKSVILLE     CLOUDY    69  54  58 SW7       30.25S
WICHITA        CLOUDY    59  55  87 SE10      30.17F
TOPEKA         CLOUDY    64  48  56 SE10      30.23S
OLATHE         CLOUDY    62  47  57 SE9       30.22F

......TENNESSEE......

CITY           SKY/WX    TMP DP  RH WIND       PRES   REMARKS
MEMPHIS        MOSUNNY   75  44  33 NE7       30.25F
NASHVILLE      SUNNY     75  42  30 VRB3      30.26F

......ARKANSAS.......

CITY           SKY/WX    TMP DP  RH WIND       PRES   REMARKS
FAYETTEVILLE   CLOUDY    63  48  58 SE5       30.22F
FT SMITH       LGT RAIN  63  50  62 E10       30.22F
LITTLE ROCK    PTSUNNY   69  48  47 NE8       30.25S

......OKLAHOMA.......

CITY           SKY/WX    TMP DP  RH WIND       PRES   REMARKS
TULSA          CLOUDY    61  52  72 SE12      30.20S
PONCA CITY     CLOUDY    62  55  77 SE12      30.18F
MCALESTER      CLOUDY    57  54  89 E5        30.22R
OKLAHOMA CITY  CLOUDY    56  53  90 SE14      30.17S

......IOWA............

CITY           SKY/WX    TMP DP  RH WIND       PRES   REMARKS
DES MOINES     CLOUDY    77  37  23 NW5       30.21S
QUAD CITIES    PTSUNNY   76  36  23 VRB3      30.19S

......ILLINOIS........

CITY           SKY/WX    TMP DP  RH WIND       PRES   REMARKS
QUINCY         CLOUDY    73  42  32 SW5       30.22F
CHICAGO        MOSUNNY   66  29  24 E9        30.24S




USA.gov is the U.S. government's official web portal to all federal, state and local government web resources and services.